This is the latest recevied weather packets stored in our database for station/object LU3HGB-WX. If no packets are shown the sender has not sent any weather packets the latest 10 day(s).
| Time | Temp. | Humidity | Pressure | Rain* | Wind** | Luminosity | Snow |
|---|---|---|---|---|---|---|---|
| 1788021173 | 20.56° C | 40% | 1013 hPa | 0 mm | - | 865 W/m² | - |
| 1788020862 | 20.56° C | 41% | 1013 hPa | 0 mm | - | 937 W/m² | - |
| 1788020560 | 20° C | 41% | 1013 hPa | 0 mm | - | 766 W/m² | - |
| 1788020260 | 20° C | 42% | 1013 hPa | 0 mm | - | 612 W/m² | - |
| 1788019960 | 20° C | 40% | 1013 hPa | 0 mm | - | 880 W/m² | - |
| 1788019661 | 19.44° C | 44% | 1013 hPa | 0 mm | - | 800 W/m² | - |
| 1788019367 | 19.44° C | 42% | 1014 hPa | 0 mm | - | 804 W/m² | - |
| 1788019060 | 19.44° C | 42% | 1014 hPa | 0 mm | - | 902 W/m² | - |
| 1788018760 | 19.44° C | 43% | 1014 hPa | 0 mm | - | 840 W/m² | - |
| 1788018459 | 19.44° C | 44% | 1014 hPa | 0 mm | - | 835 W/m² | - |
| 1788018159 | 19.44° C | 45% | 1014 hPa | 0 mm | - | 881 W/m² | - |
| 1788017860 | 18.89° C | 44% | 1014 hPa | 0 mm | - | 908 W/m² | - |
| 1788017560 | 19.44° C | 43% | 1014 hPa | 0 mm | - | 708 W/m² | - |
| 1788017259 | 19.44° C | 46% | 1014 hPa | 0 mm | - | 667 W/m² | - |
| 1788016960 | 19.44° C | 44% | 1014 hPa | 0 mm | - | 844 W/m² | - |
| 1788016659 | 19.44° C | 46% | 1014 hPa | 0 mm | - | 902 W/m² | - |
| 1788016360 | 18.89° C | 46% | 1014 hPa | 0 mm | - | 917 W/m² | - |
| 1788016059 | 18.89° C | 46% | 1013 hPa | 0 mm | - | 860 W/m² | - |
| 1788015759 | 18.89° C | 46% | 1013 hPa | 0 mm | - | 904 W/m² | - |
| 1788015459 | 18.33° C | 46% | 1014 hPa | 0 mm | - | 578 W/m² | - |
| 1788015160 | 18.89° C | 47% | 1014 hPa | 0 mm | - | 616 W/m² | - |
| 1788014859 | 18.89° C | 47% | 1014 hPa | 0 mm | - | 506 W/m² | - |
| 1788014559 | 18.89° C | 45% | 1014 hPa | 0 mm | - | 780 W/m² | - |
| 1788014261 | 18.89° C | 48% | 1013 hPa | 0 mm | - | 762 W/m² | - |
| 1788013960 | 18.33° C | 46% | 1013 hPa | 0 mm | - | 748 W/m² | - |
* Rain latest hour (hover to see other rain measurements)
** Current wind speed in m/s (hover to see current wind gust speed)